Skip Page Navigation
NASA JPL Caltech
NASA Logo - Jet Propulsion Laboratory + View the NASA Portal
+ Near-Earth Object (NEO) Program
Search JPL
JPL Home Earth Solar System Stars & Galaxies Technology
JPL Solar System Dynamics
BODIES ORBITS EPHEMERIDES TOOLS PHYSICAL DATA DISCOVERY FAQ SITE MAP
JPL Small-Body Database Browser
Search: [ help ]  
53029 Wodetzky (1998 WY6)
Classification: Main-belt Asteroid          SPK-ID: 2053029
Ephemeris | Orbit Diagram | Orbital Elements | Physical Parameters | Discovery Circumstances | Close-Approach Data ]

[ show orbit diagram ]
Orbital Elements at Epoch 2457000.5 (2014-Dec-09.0) TDB
Reference: JPL 11 (heliocentric ecliptic J2000)
 Element Value Uncertainty (1-sigma)   Units 
e .03575337354883541 6.3391e-08  
a 2.404117214956904 1.8125e-08 AU
q 2.318161914115364 1.5172e-07 AU
i 6.002779724621623 7.4693e-06 deg
node 342.4192823279155 4.7002e-05 deg
peri 217.1665404981353 0.0001029 deg
M 336.3162228591398 9.1561e-05 deg
tp 2457090.073666060083
(2015-Mar-08.57366606)
0.00034624 JED
period 1361.54463833376
3.73
1.5397e-05
4.215e-08
d
yr
n .2644055801509109 2.9901e-09 deg/d
Q 2.490072515798444 1.8773e-08 AU
  Orbit Determination Parameters
   # obs. used (total)      712  
   data-arc span      8937 days (24.47 yr)  
   first obs. used      1990-09-26  
   last obs. used      2015-03-16  
   planetary ephem.      DE431  
   SB-pert. ephem.      SB431-BIG16  
   condition code      0  
   fit RMS      .49531  
   data source      ORB  
   producer      Otto Matic  
   solution date      2015-Apr-07 18:23:57  

Additional Information
 Earth MOID = 1.32084 AU 
 T_jup = 3.515 
[ show covariance matrix ]

Ephemeris | Orbit Diagram | Orbital Elements | Physical Parameters | Discovery Circumstances | Close-Approach Data ]

Physical Parameter Table
Parameter Symbol Value Units Sigma Reference Notes
absolute magnitude H 15.0 mag n/a MPO280048  

53029 Wodetzky           Discovered 1998 Nov. 22 by K. Sárneczky and L. Kiss at Piszkéstető.
Hungarian astronomer and mathematician József Wodetzky (1872-1956) was director of the Astronomical Institute of Pázmány Péter University from 1934 to 1942. His research was in classical astronomy, mainly concerned with the three-body problem and the motion of the moon.
NOTE: some special characters may not display properly (any characters within {} are an attempt to place the proper accent above a character)
Reference: 20080122/MPCPages.arcLast Updated: 2008-03-05

[ show close-approach data ]
Ephemeris | Orbit Diagram | Orbital Elements | Physical Parameters | Discovery Circumstances | Close-Approach Data ]
ABOUT SSD CREDITS/AWARDS PRIVACY/COPYRIGHT GLOSSARY LINKS
FirstGov 2015-Apr-26 01:18 UT
(server date/time)  
NASA Home Page
Site Manager:   Ryan S. Park
Webmaster  Alan B. Chamberlin